When you browse on this site, cookies collect data to enhance your experience and personalize the content and advertising you see.
Visit our Privacy Policy to learn more. By continuing to use the site, you agree to this use of cookies and data.
  • In France
  • List of Countries
  • For 7 days
  • Water Temperature
  • Weather Map
  • Weather Widgets
  • user-avatar
    Login

    Hourly Weather Mansoa

    Today, 2 June, Tuesday

    Time Temperature Precipitation Wind Pressure Humidity
    00:00 +27°C° 0.2 mm 1 mps 759 mmHg 83%
    01:00 +27°C° 0.2 mm 1 mps 759 mmHg 84%
    02:00 +25°C° 0.2 mm 0 mps 759 mmHg 85%
    03:00 +27°C° 0.2 mm 1 mps 759 mmHg 85%
    04:00 +26°C° 0.2 mm 1 mps 759 mmHg 86%
    05:00 +26°C° 0.2 mm 1 mps 759 mmHg 86%
    06:00 +28°C° 0 mm 1 mps 759 mmHg 79%
    07:00 +29°C° 0 mm 1 mps 759 mmHg 72%
    08:00 +30°C° 0 mm 1 mps 760 mmHg 65%
    09:00 +31°C° 0 mm 0 mps 760 mmHg 56%
    10:00 +34°C° 0 mm 0 mps 759 mmHg 48%
    11:00 +36°C° 0 mm 0 mps 759 mmHg 40%
    12:00 +40°C° 0 mm 1 mps 758 mmHg 38%
    13:00 +40°C° 0 mm 1 mps 757 mmHg 37%
    14:00 +41°C° 0 mm 2 mps 757 mmHg 35%
    15:00 +39°C° 0 mm 2 mps 756 mmHg 39%
    16:00 +38°C° 0 mm 3 mps 756 mmHg 43%
    17:00 +36°C° 0 mm 4 mps 756 mmHg 46%
    18:00 +35°C° 0.1 mm 4 mps 757 mmHg 49%
    19:00 +34°C° 0.1 mm 4 mps 758 mmHg 52%
    20:00 +33°C° 0.1 mm 4 mps 758 mmHg 56%
    21:00 +31°C° 0.1 mm 3 mps 758 mmHg 54%
    22:00 +31°C° 0.1 mm 3 mps 759 mmHg 52%
    23:00 +30°C° 0.1 mm 3 mps 759 mmHg 50%

    Tomorrow, 3 June, Wednesday

    Time Temperature Precipitation Wind Pressure Humidity
    00:00 +30°C° 0.1 mm 3 mps 758 mmHg 50%
    01:00 +29°C° 0.1 mm 2 mps 758 mmHg 51%
    02:00 +28°C° 0.1 mm 2 mps 757 mmHg 51%
    03:00 +28°C° 0 mm 2 mps 758 mmHg 51%
    04:00 +28°C° 0 mm 2 mps 758 mmHg 51%
    05:00 +27°C° 0 mm 2 mps 758 mmHg 50%
    06:00 +28°C° 0 mm 2 mps 758 mmHg 47%
    07:00 +29°C° 0 mm 2 mps 758 mmHg 43%
    08:00 +30°C° 0 mm 2 mps 758 mmHg 40%
    09:00 +32°C° 0 mm 2 mps 758 mmHg 33%
    10:00 +36°C° 0 mm 3 mps 758 mmHg 27%
    11:00 +38°C° 0 mm 3 mps 758 mmHg 20%
    12:00 +40°C° 0 mm 2 mps 758 mmHg 19%
    13:00 +41°C° 0 mm 2 mps 757 mmHg 18%
    14:00 +42°C° 0 mm 2 mps 756 mmHg 17%
    15:00 +40°C° 0 mm 3 mps 756 mmHg 23%
    16:00 +38°C° 0 mm 4 mps 755 mmHg 29%
    17:00 +37°C° 0 mm 5 mps 755 mmHg 35%
    18:00 +35°C° 0 mm 5 mps 755 mmHg 39%
    19:00 +34°C° 0 mm 4 mps 756 mmHg 43%
    20:00 +32°C° 0 mm 4 mps 756 mmHg 47%
    21:00 +32°C° 0 mm 4 mps 757 mmHg 48%
    22:00 +30°C° 0 mm 3 mps 757 mmHg 48%
    23:00 +29°C° 0 mm 3 mps 757 mmHg 49%

    Day after tomorrow, 4 June, Thursday

    Time Temperature Precipitation Wind Pressure Humidity
    00:00 +28°C° 0 mm 2 mps 757 mmHg 51%
    01:00 +28°C° 0 mm 2 mps 757 mmHg 53%
    02:00 +27°C° 0 mm 2 mps 757 mmHg 55%
    03:00 +27°C° 0 mm 1 mps 757 mmHg 56%
    04:00 +26°C° 0 mm 1 mps 757 mmHg 57%
    05:00 +26°C° 0 mm 1 mps 757 mmHg 59%
    06:00 +27°C° 0 mm 1 mps 757 mmHg 53%
    07:00 +29°C° 0 mm 1 mps 758 mmHg 48%
    08:00 +30°C° 0 mm 1 mps 758 mmHg 43%
    09:00 +33°C° 0 mm 1 mps 758 mmHg 36%
    10:00 +36°C° 0 mm 2 mps 757 mmHg 30%
    11:00 +38°C° 0 mm 3 mps 757 mmHg 24%
    12:00 +40°C° 0 mm 3 mps 756 mmHg 22%
    13:00 +42°C° 0 mm 2 mps 756 mmHg 20%
    14:00 +43°C° 0 mm 2 mps 755 mmHg 18%
    15:00 +42°C° 0 mm 3 mps 755 mmHg 24%
    16:00 +39°C° 0 mm 3 mps 754 mmHg 30%
    17:00 +38°C° 0 mm 4 mps 754 mmHg 37%
    18:00 +36°C° 0 mm 4 mps 755 mmHg 43%
    19:00 +34°C° 0 mm 4 mps 756 mmHg 49%
    20:00 +32°C° 0 mm 4 mps 756 mmHg 55%
    21:00 +30°C° 0 mm 3 mps 757 mmHg 55%
    22:00 +30°C° 0 mm 3 mps 757 mmHg 56%
    23:00 +29°C° 0 mm 3 mps 757 mmHg 56%

    5 June, Friday

    Time Temperature Precipitation Wind Pressure Humidity
    00:00 +28°C° 0 mm 2 mps 757 mmHg 58%
    01:00 +27°C° 0 mm 2 mps 757 mmHg 59%
    02:00 +27°C° 0 mm 2 mps 756 mmHg 61%
    03:00 +26°C° 0 mm 2 mps 756 mmHg 62%
    04:00 +26°C° 0 mm 1 mps 757 mmHg 64%
    05:00 +25°C° 0 mm 1 mps 757 mmHg 65%
    06:00 +27°C° 0 mm 1 mps 757 mmHg 58%
    07:00 +29°C° 0 mm 1 mps 758 mmHg 51%
    08:00 +31°C° 0 mm 1 mps 758 mmHg 44%
    09:00 +34°C° 0 mm 1 mps 758 mmHg 37%
    10:00 +36°C° 0 mm 1 mps 758 mmHg 30%
    11:00 +40°C° 0 mm 1 mps 758 mmHg 24%
    12:00 +41°C° 0 mm 1 mps 757 mmHg 22%
    13:00 +42°C° 0 mm 1 mps 756 mmHg 21%
    14:00 +43°C° 0 mm 1 mps 756 mmHg 20%
    15:00 +42°C° 0 mm 3 mps 755 mmHg 27%
    16:00 +38°C° 0 mm 4 mps 755 mmHg 34%
    17:00 +36°C° 0 mm 5 mps 755 mmHg 42%
    18:00 +34°C° 0 mm 5 mps 756 mmHg 49%
    19:00 +32°C° 0 mm 5 mps 756 mmHg 56%
    20:00 +29°C° 0 mm 4 mps 757 mmHg 64%
    21:00 +29°C° 0 mm 4 mps 757 mmHg 65%
    22:00 +28°C° 0 mm 3 mps 758 mmHg 67%
    23:00 +28°C° 0 mm 3 mps 758 mmHg 69%

    6 June, Saturday

    Time Temperature Precipitation Wind Pressure Humidity
    00:00 +27°C° 0 mm 2 mps 758 mmHg 70%
    01:00 +27°C° 0 mm 2 mps 758 mmHg 72%
    02:00 +27°C° 0 mm 2 mps 758 mmHg 73%
    03:00 +26°C° 0 mm 2 mps 758 mmHg 74%
    04:00 +26°C° 0 mm 2 mps 758 mmHg 75%
    05:00 +26°C° 0 mm 2 mps 758 mmHg 76%
    06:00 +27°C° 0 mm 2 mps 758 mmHg 70%
    07:00 +29°C° 0 mm 1 mps 759 mmHg 63%
    08:00 +30°C° 0 mm 1 mps 759 mmHg 57%
    09:00 +32°C° 0 mm 2 mps 759 mmHg 51%
    10:00 +35°C° 0 mm 2 mps 759 mmHg 44%
    11:00 +37°C° 0 mm 2 mps 758 mmHg 38%
    12:00 +38°C° 0 mm 3 mps 758 mmHg 38%
    13:00 +38°C° 0 mm 4 mps 757 mmHg 39%
    14:00 +38°C° 0 mm 4 mps 756 mmHg 39%
    15:00 +37°C° 0 mm 4 mps 756 mmHg 43%
    16:00 +35°C° 0 mm 4 mps 756 mmHg 47%
    17:00 +34°C° 0 mm 4 mps 755 mmHg 52%
    18:00 +33°C° 0 mm 4 mps 756 mmHg 58%
    19:00 +30°C° 0 mm 4 mps 757 mmHg 64%
    20:00 +29°C° 0 mm 4 mps 758 mmHg 70%
    21:00 +28°C° 0 mm 4 mps 758 mmHg 72%
    22:00 +28°C° 0 mm 4 mps 758 mmHg 74%
    23:00 +28°C° 0 mm 3 mps 758 mmHg 75%

    7 June, Sunday

    Time Temperature Precipitation Wind Pressure Humidity
    00:00 +27°C° 0 mm 3 mps 758 mmHg 76%
    01:00 +27°C° 0 mm 3 mps 758 mmHg 77%
    02:00 +27°C° 0 mm 2 mps 757 mmHg 78%
    03:00 +27°C° 0 mm 2 mps 758 mmHg 79%
    04:00 +26°C° 0 mm 2 mps 758 mmHg 80%
    05:00 +26°C° 0 mm 2 mps 758 mmHg 82%
    06:00 +27°C° 0 mm 2 mps 758 mmHg 75%
    07:00 +29°C° 0 mm 2 mps 758 mmHg 69%
    08:00 +30°C° 0 mm 2 mps 759 mmHg 63%
    09:00 +33°C° 0 mm 3 mps 758 mmHg 56%
    10:00 +35°C° 0 mm 3 mps 758 mmHg 49%
    11:00 +37°C° 0 mm 4 mps 758 mmHg 42%
    12:00 +37°C° 0 mm 4 mps 757 mmHg 41%
    13:00 +37°C° 0 mm 5 mps 757 mmHg 41%
    14:00 +39°C° 0 mm 5 mps 756 mmHg 41%
    15:00 +37°C° 0 mm 5 mps 756 mmHg 44%
    16:00 +35°C° 0 mm 5 mps 756 mmHg 48%
    17:00 +34°C° 0 mm 5 mps 755 mmHg 51%
    18:00 +33°C° 0 mm 5 mps 756 mmHg 58%
    19:00 +30°C° 0 mm 4 mps 757 mmHg 65%
    20:00 +29°C° 0 mm 4 mps 757 mmHg 72%
    21:00 +29°C° 0 mm 3 mps 758 mmHg 74%
    22:00 +28°C° 0 mm 3 mps 758 mmHg 76%
    23:00 +28°C° 0 mm 3 mps 759 mmHg 78%
    Show more